Location: Appleton
(44.2618°N, 88.4157°W)
Time: 07:54:08
(UTC+00:00)

S-56A Canister/Altair - Pass Details

Date: 01 March 2021
Orbit: 632 x 2500 km, 38.9° (Epoch: 17 April)

Event Time Altitude Azimuth Distance (km) Brightness Sun altitude
Rises 01:27:09 0° 281° (W) 6,161 13.8 -19.7°
Reaches altitude 10° 01:31:30 10° 277° (W) 5,069 12.9 -20.5°
Maximum altitude 01:44:51 49° 209° (SSW) 2,476 10.1 -22.9°
Enters shadow 01:51:47 23° 147° (SSE) 3,106 10.2 -24.1°
Drops below altitude 10° 01:54:40 10° 138° (SE) 3,775 - -24.6°
Sets 01:57:25 0° 133° (SE) 4,522 - -25.0°
